STARLINK-4536, 53783

Orbit data source: Space-Track

STARLINK-4536, 53783 is a payload satellite owned by SpaceX/Seattle (US) in LEO that was launched on Sun, 11 Sep 2022 UTC via an FALCON 9 launch vehicle from the Air Force Eastern Test Range (AFETR). Payload-class satellites include a variety of spacecraft equipped with specific instruments for various scientific and technological missions. These include communications satellites like Starlink; space stations such as the ISS; scientific satellites like the Hubble; Earth observation satellites from companies like Planet Labs, Umbra, and HawkEye 360; GPS; miniature CubeSats for education and research; and military/defense satellites.

Loading next visibility...
Identifier
53783, 2022-111L
Orbit
LEO
Country
Flag of USUS
Related business
Manufacturer
SpaceX/Seattle
Mission
Operational Commercial Communications
Bus & Motor
STARLINK, Unknown motor
Mass
305 kg wet, ~290 kg dry
Launch date (UTC)
2022-09-11 (4 years ago)
Launch vehicle
FALCON 9
Launch site
Air Force Eastern Test Range (AFETR)
Object type
Payload
Rocket body
Debris
Shape & HBR
Box + 1 Pan, 10.1 m
Radar Cross Section
13.562 m², Large (>1 m²)

Expand to show TLE details & history
Last TLE update: 21 hours ago

TLE from 21 hours ago
0 STARLINK-4536
1 53783U 22111L   26263.21216385  .00000994  00000-0  39387-4 0  9996
2 53783  53.1614 117.3365 0001183  99.4836 260.6300 15.35404972223101
Epoch: 2026-09-20T05:05Z
TLE epoch observation values (Epoch: 2026-09-20T05:05:30.956Z)
Latitude
-0.00009°
Longitude
41.84786°
Altitude
460.752 km
Speed
7.637 km/s
True Right ascension
07h 49m 20s
True Declination
0° 00' 00"
Sunlit
Object was in daylight at epoch
Visualization orbit readout
Latitude
Unknown
Longitude
Unknown
Altitude
Unknown
Speed
Unknown
Apparent Right ascension
Unknown
Apparent Declination
Unknown
Sunlit
N/A
Visualization observer readout
Local Sidereal Time
19:10:44
Azimuth
Unknown
Elevation
Unknown
Doppler factor
Unknown
Orbital elements
Apogee altitude
460.784 km
Perigee altitude
459.166 km
Semi-major axis
6,838.112 km
Eccentricity
0.00012
Inclination
53.1614°
RAAN
117.3365°
Arg. of periapsis
99.4836°
True anomaly
260.61663°
Mean anomaly
260.63°
Eccentric anomaly
260.62331°
Mean motion
3.8383 °/min
Orbital period
93.79 mins
BSTAR
0.000039387
Loading maneuver chart data...
Computing Atmospheric mass density...
Loading historical data...
Loading historical data...
Loading historical data...
Loading historical data...
Loading historical data...
Loading historical data...
Loading historical data...

Documentation

Showing up to 5 results
|